• Join FlightAware (Why Join?)
  • Login
  • US Flag 
04:24PM EST


 

Airport Tracker/Info


-or-


 

Live Flight TrackerFlight Track Log ✈ UAL1197 ✈ 15-Jun-2013 ✈ KIAH - KTPA

Flight Track Log - Related Links

Times and Time Zones

All times are in EDT time to prevent confusion due to time zone crossing. See the UAL1197 flight status page for this flight to view local times or setup timezone preferences in your user account.

Time Position Orientation Groundspeed Altitude Reporting Facility
EDT Latitude Longitude Course Direction KTS MPH feet Rate Location/Type
08:18AM 29.9547 -95.3372 120° Southeast 200 230 800  Level Houston Center
08:18AM 29.9378 -95.3128 129° Southeast 192 221 1,600 2,301 Climbing Houston Center
08:19AM 29.9119 -95.2769 130° Southeast 213 245 3,600 2,656 Climbing Houston Center
08:20AM 29.8986 -95.2500 120° Southeast 250 288 4,300 2,656 Climbing Houston Center
08:20AM 29.8883 -95.1975 103° East 260 299 6,300 3,173 Climbing Houston Center
08:21AM 29.8098 -94.9582 118° Southeast  Level FlightAware Approximate
08:21AM 29.8719 -95.1103 102° East 277 319 9,800  Level Houston Center
08:22AM 29.7558 -94.8309 115° Southeast  Level FlightAware Approximate
08:22AM 29.8536 -95.0136 102° East 305 351 11,400  Level Houston Center
08:23AM 29.7019 -94.7038 120° Southeast  Level FlightAware Approximate
08:23AM 29.8311 -94.9039 103° East 348 400 13,800  Level Houston Center
08:24AM 29.8089 -94.7886 102° East 361 415 16,300 2,410 Climbing Houston Center
08:25AM 29.7861 -94.6714 103° East 371 427 18,700 2,262 Climbing Houston Center
08:26AM 29.7614 -94.5469 103° East 392 451 20,900 1,967 Climbing Houston Center
08:27AM 29.7361 -94.4189 103° East 408 470 22,700 1,820 Climbing Houston Center
08:28AM 29.7131 -94.2858 101° East 421 484 24,600 1,967 Climbing Houston Center
08:29AM 29.6967 -94.1247 97° East 432 497 26,700 1,805 Climbing Houston Center
08:30AM 29.6847 -93.9867 96° East 435 501 28,300 1,268 Climbing Houston Center
08:31AM 29.6839 -93.8428 90° East 446 513 29,300 984 Climbing Houston Center
08:32AM 29.6831 -93.6947 90° East 459 528 30,300 1,131 Climbing Houston Center
08:33AM 29.6803 -93.5433 91° East 473 544 31,600 1,512 Climbing Houston Center
08:35AM 29.6786 -93.3936 91° East 472 543 33,400 1,512 Climbing Houston Center
08:36AM 29.6764 -93.2461 91° East 466 536 34,700 1,131 Climbing Houston Center
08:37AM 29.6744 -93.0992 91° East 463 533 35,700 1,033 Climbing Houston Center
08:38AM 29.6722 -92.9211 91° East 467 537 36,800 634 Climbing Houston Center
08:39AM 29.6600 -92.7731 95° East 469 540 37,000 98 Climbing Houston Center
08:40AM 29.6342 -92.6261 101° East 470 541 37,000 -49 Level Houston Center
08:41AM 29.6078 -92.4822 102° East 465 535 36,900 -49 Descending Houston Center
08:42AM 29.5828 -92.3356 101° East 467 537 36,900 49 Level Houston Center
08:43AM 29.5564 -92.1939 102° East 461 531 37,000 49 Climbing Houston Center
08:44AM 29.5314 -92.0522 101° East 455 524 37,000 195 Level Houston Center
08:45AM 29.5053 -91.9089 102° East 459 528 37,400 634 Climbing Houston Center
08:46AM 29.4744 -91.7333 101° East 466 536 38,300 732 Climbing Houston Center
08:47AM 29.4475 -91.5897 102° East 466 536 38,900 293 Climbing Houston Center
08:48AM 29.4206 -91.4450 102° East 466 536 38,900 49 Level Houston Center
08:49AM 29.3942 -91.2994 102° East 467 537 39,000  Climbing Houston Center
08:50AM 29.3675 -91.1569 102° East 462 532 38,900  Descending Houston Center
08:51AM 29.3406 -91.0158 102° East 455 524 39,000 49 Climbing Houston Center
08:52AM 29.3147 -90.8744 102° East 453 521 39,000 -49 Level Houston Center
08:53AM 29.2872 -90.7336 103° East 453 521 38,900  Descending Houston Center
08:54AM 29.2550 -90.5636 102° East 457 526 39,000 49 Climbing Houston Center
08:55AM 29.2272 -90.4231 103° East 456 525 39,000  Level Houston Center
08:56AM 29.1978 -90.2814 103° East 458 527 39,000  Level Houston Center
08:57AM 29.1692 -90.1414 103° East 456 525 39,000  Level Houston Center
08:58AM 29.1392 -90.0019 104° East 455 524 39,000  Level Houston Center
08:59AM 29.1092 -89.8614 104° East 455 524 39,000  Level Houston Center
09:00AM 29.0808 -89.7208 103° East 456 525 39,000  Level Houston Center
09:01AM 29.0517 -89.5800 103° East 457 526 39,000  Level Houston Center
09:02AM 29.0153 -89.4111 104° East 458 527 39,000 -49 Level Houston Center
09:03AM 28.9844 -89.2708 104° East 458 527 38,900  Descending Houston Center
09:04AM 28.9539 -89.1314 104° East 456 525 39,000 49 Climbing Houston Center
09:05AM 28.9242 -88.9914 104° East 455 524 39,000  Level Houston Center
09:06AM 28.8942 -88.8519 104° East 456 525 39,000  Level Houston Center
09:07AM 28.8631 -88.7122 104° East 456 525 39,000 -49 Level Houston Center
09:08AM 28.8328 -88.5736 104° East 453 521 38,900  Descending Houston Center
09:09AM 28.8019 -88.4347 104° East 454 522 39,000 49 Climbing Houston Center
09:10AM 28.7647 -88.2664 104° East 456 525 39,000  Level Houston Center
09:11AM 28.7325 -88.1269 105° East 458 527 39,000  Level Houston Center
09:12AM 28.7022 -87.9875 104° East 458 527 39,000  Level Houston Center
09:13AM 28.6700 -87.8461 105° East 461 531 39,000  Level Houston Center
09:14AM 28.6383 -87.7075 105° East 457 526 39,000  Level Houston Center
09:15AM 28.6053 -87.5672 105° East 458 527 39,000  Level Houston Center
09:16AM 28.5742 -87.4297 104° East 455 524 39,000  Level Houston Center
09:17AM 28.5428 -87.2911 104° East 454 522 39,000  Level Houston Center
09:18AM 28.5031 -87.1261 105° East 453 521 39,000  Level Houston Center
09:19AM 28.4728 -86.9917 104° East 448 516 39,000  Level Jacksonville Center
09:20AM 28.4394 -86.8536 105° East 448 516 39,000  Level Jacksonville Center
09:21AM 28.4081 -86.7178 105° East 453 521 39,000  Level Jacksonville Center
09:22AM 28.3747 -86.5797 105° East 442 509 39,000  Level Jacksonville Center
09:23AM 28.3408 -86.4417 106° East 448 516 39,000  Level Jacksonville Center
09:24AM 28.3092 -86.3064 105° East 439 505 39,000 -50 Level Jacksonville Center
09:25AM 28.2753 -86.1683 106° East 444 511 38,900 -50 Descending Jacksonville Center
09:26AM 28.2431 -86.0378 106° East 444 511 38,900 50 Level Jacksonville Center
09:27AM 28.2108 -85.9025 105° East 439 505 39,000 50 Climbing Jacksonville Center
09:28AM 28.1761 -85.7722 107° East 439 505 39,000 -50 Level Jacksonville Center
09:29AM 28.1436 -85.6347 105° East 445 512 38,900 -50 Descending Jacksonville Center
09:30AM 28.1089 -85.5019 106° East 445 512 38,900 -583 Level Jacksonville Center
09:32AM 28.0489 -85.2539 105° East 449 517 37,200 -926 Descending Miami Center
09:33AM 28.0133 -85.1103 106° East 461 531 36,200 -1,000 Descending Miami Center
09:34AM 27.9772 -84.9739 107° East 461 531 35,200 -950 Descending Miami Center
09:35AM 27.9475 -84.8381 104° East 466 536 34,300 -1,000 Descending Miami Center
09:36AM 27.9358 -84.6731 95° East 461 531 33,200 -1,000 Descending Miami Center
09:37AM 27.9353 -84.5275 90° East 461 531 32,300 -950 Descending Miami Center
09:38AM 27.9367 -84.3797 89° East 466 536 31,300 -1,750 Descending Miami Center
09:39AM 27.9319 -84.2339 92° East 466 536 28,800 -2,750 Descending Miami Center
09:40AM 27.9289 -84.0881 91° East 460 529 25,800 -2,800 Descending Miami Center
09:41AM 27.9294 -83.9497 90° East 455 524 23,200 -2,600 Descending Miami Center
09:42AM 27.9281 -83.8111 91° East 449 517 20,600 -2,500 Descending Miami Center
09:43AM 27.9217 -83.6817 93° East 436 502 18,200 -2,400 Descending Miami Center
09:44AM 27.9214 -83.5547 90° East 417 480 15,800 -2,400 Descending Miami Center
09:45AM 27.9186 -83.4350 91° East 394 453 13,400 -2,350 Descending Miami Center
09:46AM 27.9153 -83.3197 92° East 375 432 11,100 -1,600 Descending Miami Center
09:47AM 27.9344 -83.2175 78° East 331 381 10,200 -850 Descending Miami Center
09:48AM 27.9697 -83.1303 65° Northeast 318 366 9,400 -650 Descending Miami Center
09:49AM 28.0422 -83.0897 26° Northeast 271 312 8,900 -200 Descending Miami Center
09:50AM 28.1147 -83.0561 22° Northeast 271 312 9,000 50 Climbing Miami Center
09:51AM 28.1775 -83.0006 38° Northeast 271 312 9,000 -500 Level Miami Center
09:52AM 28.2283 -82.9328 50° Northeast 277 319 8,000 -1,250 Descending Miami Center
09:53AM 28.2714 -82.8525 59° Northeast 277 319 6,500 -1,000 Descending Miami Center
09:54AM 28.2667 -82.7675 94° East 260 299 6,000 -273 Descending Miami Center
09:56AM 28.2500 -82.6667 101° East 249 287 5,900 -273 Descending Tampa TRACON
09:57AM 28.2167 -82.6000 120° Southeast 232 267 5,400 -1,095 Descending Tampa TRACON
09:58AM 28.1667 -82.5667 150° Southeast 224 258 3,600 -1,619 Descending Tampa TRACON
09:59AM 28.1000 -82.5333 156° South 225 259 2,000 -1,600 Descending Tampa TRACON